When you browse on this site, cookies collect data to enhance your experience and personalize the content and advertising you see.
Visit our Privacy Policy to learn more. By continuing to use the site, you agree to this use of cookies and data.
  • In United Kingdom
  • List of Countries
  • For 7 days
  • Water Temperature
  • Weather Map
  • Weather Widgets
  • user-avatar
    Login

    Hourly Weather Oadby

    Today, 1 June, Monday

    Time Temperature Precipitation Wind Pressure Humidity
    00:00 +8°C° 0 mm 3 mps 760 mmHg 87%
    01:00 +8°C° 0 mm 3 mps 760 mmHg 89%
    02:00 +8°C° 0 mm 3 mps 760 mmHg 91%
    03:00 +8°C° 0 mm 3 mps 760 mmHg 94%
    04:00 +9°C° 0 mm 3 mps 760 mmHg 92%
    05:00 +10°C° 0 mm 3 mps 760 mmHg 91%
    06:00 +11°C° 0 mm 4 mps 760 mmHg 90%
    07:00 +13°C° 0 mm 4 mps 760 mmHg 85%
    08:00 +15°C° 0 mm 4 mps 760 mmHg 79%
    09:00 +18°C° 0 mm 4 mps 760 mmHg 74%
    10:00 +19°C° 0 mm 4 mps 760 mmHg 71%
    11:00 +19°C° 0 mm 4 mps 760 mmHg 68%
    12:00 +20°C° 0 mm 4 mps 760 mmHg 64%
    13:00 +20°C° 0 mm 4 mps 760 mmHg 65%
    14:00 +21°C° 0 mm 4 mps 760 mmHg 66%
    15:00 +21°C° 0 mm 4 mps 760 mmHg 66%
    16:00 +20°C° 0.1 mm 4 mps 759 mmHg 70%
    17:00 +19°C° 0.1 mm 4 mps 759 mmHg 74%
    18:00 +18°C° 0.1 mm 4 mps 759 mmHg 78%
    19:00 +15°C° 0 mm 4 mps 759 mmHg 80%
    20:00 +13°C° 0 mm 3 mps 760 mmHg 83%
    21:00 +11°C° 0 mm 3 mps 760 mmHg 85%
    22:00 +10°C° 0 mm 3 mps 760 mmHg 88%
    23:00 +9°C° 0 mm 2 mps 760 mmHg 90%

    Tomorrow, 2 June, Tuesday

    Time Temperature Precipitation Wind Pressure Humidity
    00:00 +8°C° 0 mm 2 mps 760 mmHg 92%
    01:00 +8°C° 0 mm 2 mps 760 mmHg 93%
    02:00 +8°C° 0 mm 2 mps 759 mmHg 93%
    03:00 +7°C° 0 mm 2 mps 759 mmHg 93%
    04:00 +8°C° 0 mm 2 mps 759 mmHg 91%
    05:00 +9°C° 0 mm 2 mps 759 mmHg 90%
    06:00 +10°C° 0 mm 2 mps 759 mmHg 88%
    07:00 +13°C° 0 mm 2 mps 759 mmHg 83%
    08:00 +13°C° 0 mm 3 mps 758 mmHg 77%
    09:00 +16°C° 0 mm 3 mps 758 mmHg 72%
    10:00 +17°C° 0 mm 2 mps 758 mmHg 68%
    11:00 +18°C° 0 mm 2 mps 758 mmHg 64%
    12:00 +19°C° 0 mm 2 mps 757 mmHg 60%
    13:00 +20°C° 0 mm 2 mps 757 mmHg 58%
    14:00 +20°C° 0 mm 2 mps 756 mmHg 57%
    15:00 +20°C° 0 mm 2 mps 756 mmHg 56%
    16:00 +21°C° 0 mm 1 mps 755 mmHg 59%
    17:00 +21°C° 0 mm 1 mps 755 mmHg 63%
    18:00 +21°C° 0 mm 1 mps 754 mmHg 67%
    19:00 +19°C° 0 mm 1 mps 754 mmHg 71%
    20:00 +16°C° 0 mm 1 mps 754 mmHg 75%
    21:00 +14°C° 0 mm 1 mps 754 mmHg 80%
    22:00 +13°C° 0 mm 1 mps 753 mmHg 80%
    23:00 +13°C° 0 mm 2 mps 753 mmHg 81%

    Day after tomorrow, 3 June, Wednesday

    Time Temperature Precipitation Wind Pressure Humidity
    00:00 +13°C° 0 mm 2 mps 752 mmHg 81%
    01:00 +13°C° 0 mm 2 mps 752 mmHg 81%
    02:00 +13°C° 0 mm 2 mps 751 mmHg 80%
    03:00 +13°C° 0 mm 2 mps 750 mmHg 80%
    04:00 +13°C° 0.1 mm 2 mps 750 mmHg 82%
    05:00 +13°C° 0.1 mm 2 mps 750 mmHg 84%
    06:00 +13°C° 0.1 mm 2 mps 749 mmHg 86%
    07:00 +13°C° 0.3 mm 2 mps 749 mmHg 87%
    08:00 +11°C° 0.3 mm 3 mps 749 mmHg 89%
    09:00 +11°C° 0.3 mm 3 mps 749 mmHg 91%
    10:00 +11°C° 0.4 mm 3 mps 749 mmHg 92%
    11:00 +11°C° 0.4 mm 4 mps 749 mmHg 93%
    12:00 +11°C° 0.4 mm 4 mps 749 mmHg 93%
    13:00 +10°C° 0 mm 5 mps 749 mmHg 91%
    14:00 +12°C° 0 mm 5 mps 749 mmHg 89%
    15:00 +11°C° 0 mm 6 mps 749 mmHg 87%
    16:00 +11°C° 0 mm 6 mps 749 mmHg 85%
    17:00 +12°C° 0 mm 5 mps 749 mmHg 83%
    18:00 +12°C° 0 mm 5 mps 749 mmHg 81%
    19:00 +10°C° 0 mm 5 mps 749 mmHg 82%
    20:00 +11°C° 0 mm 4 mps 749 mmHg 82%
    21:00 +10°C° 0 mm 4 mps 749 mmHg 83%
    22:00 +10°C° 0 mm 4 mps 749 mmHg 87%
    23:00 +8°C° 0 mm 4 mps 749 mmHg 91%

    4 June, Thursday

    Time Temperature Precipitation Wind Pressure Humidity
    00:00 +7°C° 0 mm 4 mps 749 mmHg 95%
    01:00 +8°C° 0 mm 4 mps 748 mmHg 92%
    02:00 +8°C° 0 mm 5 mps 748 mmHg 89%
    03:00 +9°C° 0 mm 5 mps 748 mmHg 86%
    04:00 +8°C° 0 mm 5 mps 748 mmHg 85%
    05:00 +8°C° 0 mm 5 mps 747 mmHg 83%
    06:00 +8°C° 0 mm 5 mps 747 mmHg 82%
    07:00 +9°C° 0 mm 5 mps 747 mmHg 76%
    08:00 +10°C° 0 mm 5 mps 747 mmHg 70%
    09:00 +10°C° 0 mm 5 mps 747 mmHg 64%
    10:00 +12°C° 0 mm 5 mps 747 mmHg 63%
    11:00 +12°C° 0 mm 5 mps 747 mmHg 61%
    12:00 +13°C° 0 mm 5 mps 746 mmHg 60%
    13:00 +13°C° 0 mm 5 mps 746 mmHg 59%
    14:00 +14°C° 0 mm 5 mps 746 mmHg 58%
    15:00 +14°C° 0 mm 4 mps 745 mmHg 57%
    16:00 +13°C° 0.1 mm 4 mps 745 mmHg 64%
    17:00 +13°C° 0.1 mm 4 mps 745 mmHg 70%
    18:00 +12°C° 0.1 mm 3 mps 745 mmHg 76%
    19:00 +11°C° 0.1 mm 3 mps 745 mmHg 80%
    20:00 +10°C° 0.1 mm 3 mps 745 mmHg 84%
    21:00 +9°C° 0.1 mm 2 mps 745 mmHg 88%
    22:00 +9°C° 0.1 mm 3 mps 745 mmHg 89%
    23:00 +8°C° 0.1 mm 3 mps 745 mmHg 90%

    5 June, Friday

    Time Temperature Precipitation Wind Pressure Humidity
    00:00 +8°C° 0.1 mm 3 mps 745 mmHg 92%
    01:00 +8°C° 0 mm 3 mps 744 mmHg 93%
    02:00 +6°C° 0 mm 4 mps 744 mmHg 93%
    03:00 +6°C° 0 mm 4 mps 744 mmHg 94%
    04:00 +7°C° 0 mm 4 mps 743 mmHg 93%
    05:00 +8°C° 0 mm 4 mps 743 mmHg 91%
    06:00 +10°C° 0 mm 4 mps 743 mmHg 90%
    07:00 +10°C° 0 mm 4 mps 743 mmHg 89%
    08:00 +10°C° 0 mm 4 mps 742 mmHg 89%
    09:00 +10°C° 0 mm 4 mps 742 mmHg 89%
    10:00 +10°C° 0.2 mm 5 mps 741 mmHg 88%
    11:00 +12°C° 0.2 mm 5 mps 741 mmHg 87%
    12:00 +13°C° 0.2 mm 6 mps 741 mmHg 86%
    13:00 +14°C° 0.2 mm 7 mps 741 mmHg 81%
    14:00 +13°C° 0.2 mm 8 mps 740 mmHg 75%
    15:00 +15°C° 0.2 mm 8 mps 740 mmHg 70%
    16:00 +13°C° 0.1 mm 8 mps 740 mmHg 70%
    17:00 +12°C° 0.1 mm 8 mps 741 mmHg 70%
    18:00 +12°C° 0.1 mm 7 mps 741 mmHg 70%
    19:00 +11°C° 0 mm 7 mps 741 mmHg 68%
    20:00 +11°C° 0 mm 6 mps 742 mmHg 67%
    21:00 +10°C° 0 mm 6 mps 742 mmHg 65%
    22:00 +9°C° 0 mm 6 mps 743 mmHg 69%
    23:00 +9°C° 0 mm 6 mps 743 mmHg 73%

    6 June, Saturday

    Time Temperature Precipitation Wind Pressure Humidity
    00:00 +8°C° 0 mm 5 mps 743 mmHg 77%
    01:00 +8°C° 0 mm 5 mps 744 mmHg 80%
    02:00 +7°C° 0 mm 4 mps 744 mmHg 83%
    03:00 +7°C° 0 mm 4 mps 745 mmHg 86%
    04:00 +7°C° 0 mm 4 mps 745 mmHg 84%
    05:00 +8°C° 0 mm 4 mps 746 mmHg 83%
    06:00 +8°C° 0 mm 4 mps 746 mmHg 81%
    07:00 +9°C° 0 mm 5 mps 746 mmHg 76%
    08:00 +10°C° 0 mm 6 mps 746 mmHg 71%
    09:00 +11°C° 0 mm 7 mps 747 mmHg 66%
    10:00 +12°C° 0.1 mm 7 mps 747 mmHg 62%
    11:00 +12°C° 0.1 mm 7 mps 747 mmHg 57%
    12:00 +13°C° 0.1 mm 8 mps 747 mmHg 53%
    13:00 +13°C° 0.1 mm 8 mps 747 mmHg 53%
    14:00 +12°C° 0.1 mm 8 mps 747 mmHg 53%
    15:00 +12°C° 0.1 mm 8 mps 747 mmHg 52%
    16:00 +12°C° 0 mm 7 mps 748 mmHg 55%
    17:00 +11°C° 0 mm 7 mps 748 mmHg 57%
    18:00 +10°C° 0 mm 6 mps 748 mmHg 59%
    19:00 +9°C° 0 mm 6 mps 749 mmHg 61%
    20:00 +7°C° 0 mm 5 mps 749 mmHg 62%
    21:00 +6°C° 0 mm 4 mps 749 mmHg 64%
    22:00 +5°C° 0 mm 4 mps 750 mmHg 66%
    23:00 +4°C° 0 mm 4 mps 750 mmHg 69%
    Show more